Location: Dumpton Point
(51.3500°N, 1.4433°E)
Time: 04:34:45
(UTC+00:00)

Altair - Pass Details

Date: 03 October 2022
Orbit: 1501 x 1682 km, 47.2° (Epoch: 26 November)

Event Time Altitude Azimuth Distance (km) Brightness Sun altitude
Rises 12:48:00 0° 285° (WNW) 4,930 10.2 32.9°
Reaches altitude 10° 12:53:13 10° 264° (W) 3,946 10.1 32.6°
Maximum altitude 12:57:51 14° 236° (SW) 3,606 10.5 32.3°
Drops below altitude 10° 13:02:29 10° 208° (SSW) 3,927 11.2 32.0°
Sets 13:07:42 0° 186° (S) 4,890 11.1 31.7°
